Location: Nantong Television Tower
(32.0188°N, 120.8512°E)
Time: 15:50:37
(UTC+08:00)

Vanguard 3 - Visible Passes

Search period start: 22 December 2014 00:00
Search period end: 01 January 2015 00:00
Orbit: 508 x 3276 km, 33.3° (Epoch: 20 December)

Date Brightness Start Highest point End Pass type
(mag) Time Alt. Az. Time Alt. Az. Time Alt. Az.
22 Dec 7.9 04:42:23 31° S 04:43:05 33° SSE 04:46:37 10° E visible
23 Dec 9.8 03:34:43 10° ESE 03:34:43 10° ESE 03:34:44 10° ESE visible
23 Dec 6.5 05:39:28 17° WSW 05:42:52 71° SSE 05:46:31 10° E visible
24 Dec 7.6 04:31:42 43° SE 04:31:42 43° SE 04:34:59 10° E visible
25 Dec 6.4 05:28:37 28° WSW 05:30:57 85° SSE 05:34:41 10° E visible
26 Dec 8.0 04:20:43 38° ESE 04:20:43 38° ESE 04:23:17 10° E visible
26 Dec 6.3 06:26:29 10° W 06:30:47 72° N 06:34:25 10° E visible
27 Dec 6.5 05:17:30 43° W 05:19:01 85° N 05:22:51 10° E visible
28 Dec 8.5 04:09:30 30° E 04:09:30 30° E 04:11:32 10° E visible
28 Dec 6.4 06:14:16 10° W 06:18:53 73° N 06:22:32 10° E visible
29 Dec 6.6 05:06:12 60° WNW 05:07:03 79° N 05:11:03 10° E visible
30 Dec 9.0 03:58:08 24° E 03:58:08 24° E 03:59:45 10° E visible
30 Dec 6.4 06:02:51 14° W 06:06:58 78° N 06:10:41 10° E visible
31 Dec 6.8 04:54:45 73° NW 04:55:03 77° N 04:59:15 10° E visible
